Hourly Weather Almaly

Today, 6 March, Saturday

Time Temperature Precipitation Wind Pressure Humidity
00:00 -2°C° 0 mm 6 mps 766 mmHg 82%
01:00 -2°C° 0 mm 6 mps 766 mmHg 82%
02:00 -2°C° 0 mm 6 mps 765 mmHg 83%
03:00 -1°C° 0 mm 5 mps 765 mmHg 84%
04:00 -1°C° 0 mm 5 mps 765 mmHg 84%
05:00 -2°C° 0 mm 6 mps 765 mmHg 84%
06:00 -2°C° 0 mm 6 mps 765 mmHg 84%
07:00 -1°C° 0 mm 6 mps 765 mmHg 81%
08:00 +1°C° 0 mm 6 mps 765 mmHg 78%
09:00 +2°C° 0 mm 6 mps 765 mmHg 76%
10:00 +3°C° 0 mm 6 mps 765 mmHg 72%
11:00 +4°C° 0 mm 6 mps 765 mmHg 68%
12:00 +5°C° 0 mm 7 mps 764 mmHg 64%
13:00 +5°C° 0 mm 7 mps 764 mmHg 65%
14:00 +5°C° 0 mm 7 mps 763 mmHg 66%
15:00 +4°C° 0 mm 8 mps 763 mmHg 66%
16:00 +3°C° 0 mm 7 mps 763 mmHg 74%
17:00 +2°C° 0 mm 6 mps 762 mmHg 81%
18:00 +1°C° 0 mm 6 mps 762 mmHg 88%
19:00 +1°C° 0 mm 6 mps 762 mmHg 88%
20:00 0°C° 0 mm 7 mps 762 mmHg 89%
21:00 0°C° 0 mm 7 mps 761 mmHg 89%
22:00 0°C° 0 mm 7 mps 761 mmHg 89%
23:00 0°C° 0 mm 7 mps 760 mmHg 88%

Tomorrow, 7 March, Sunday

Time Temperature Precipitation Wind Pressure Humidity
00:00 0°C° 0 mm 7 mps 759 mmHg 88%
01:00 0°C° 0 mm 8 mps 759 mmHg 88%
02:00 -1°C° 0 mm 8 mps 758 mmHg 89%
03:00 -1°C° 0 mm 8 mps 758 mmHg 90%
04:00 0°C° 0 mm 8 mps 758 mmHg 88%
05:00 0°C° 0 mm 8 mps 757 mmHg 86%
06:00 0°C° 0 mm 8 mps 757 mmHg 84%
07:00 0°C° 0 mm 9 mps 758 mmHg 83%
08:00 0°C° 0 mm 10 mps 759 mmHg 82%
09:00 -1°C° 0 mm 11 mps 760 mmHg 81%
10:00 -3°C° 0 mm 10 mps 761 mmHg 78%
11:00 -4°C° 0 mm 10 mps 762 mmHg 75%
12:00 -5°C° 0 mm 9 mps 763 mmHg 72%
13:00 -4°C° 0 mm 9 mps 763 mmHg 67%
14:00 -4°C° 0 mm 9 mps 764 mmHg 63%
15:00 -4°C° 0 mm 8 mps 765 mmHg 59%
16:00 -4°C° 0 mm 7 mps 765 mmHg 58%
17:00 -4°C° 0 mm 5 mps 766 mmHg 57%
18:00 -4°C° 0 mm 3 mps 766 mmHg 55%
19:00 -3°C° 0 mm 2 mps 767 mmHg 55%
20:00 -1°C° 0 mm 1 mps 767 mmHg 55%
21:00 -2°C° 0 mm 0 mps 767 mmHg 55%
22:00 -1°C° 0 mm 1 mps 767 mmHg 54%
23:00 -4°C° 0 mm 3 mps 767 mmHg 53%

Day after tomorrow, 8 March, Monday

Time Temperature Precipitation Wind Pressure Humidity
00:00 -4°C° 0 mm 4 mps 767 mmHg 51%
01:00 -4°C° 0 mm 4 mps 767 mmHg 57%
02:00 -5°C° 0 mm 5 mps 767 mmHg 62%
03:00 -5°C° 0 mm 6 mps 767 mmHg 68%
04:00 -5°C° 0 mm 6 mps 767 mmHg 71%
05:00 -5°C° 0 mm 6 mps 767 mmHg 74%
06:00 -5°C° 0 mm 6 mps 766 mmHg 77%
07:00 -4°C° 0 mm 7 mps 766 mmHg 67%
08:00 -4°C° 0 mm 8 mps 766 mmHg 58%
09:00 -3°C° 0 mm 9 mps 766 mmHg 48%
10:00 -3°C° 0 mm 9 mps 766 mmHg 49%
11:00 -1°C° 0 mm 9 mps 766 mmHg 49%
12:00 -2°C° 0 mm 10 mps 766 mmHg 49%
13:00 -1°C° 0 mm 9 mps 765 mmHg 51%
14:00 -1°C° 0 mm 9 mps 765 mmHg 53%
15:00 -1°C° 0 mm 9 mps 765 mmHg 54%
16:00 -2°C° 0 mm 8 mps 764 mmHg 60%
17:00 -3°C° 0 mm 7 mps 764 mmHg 65%
18:00 -4°C° 0 mm 7 mps 764 mmHg 70%
19:00 -4°C° 0 mm 7 mps 764 mmHg 69%
20:00 -4°C° 0 mm 7 mps 765 mmHg 68%
21:00 -4°C° 0 mm 7 mps 765 mmHg 67%
22:00 -4°C° 0 mm 7 mps 764 mmHg 67%
23:00 -4°C° 0 mm 7 mps 764 mmHg 67%

9 March, Tuesday

Time Temperature Precipitation Wind Pressure Humidity
00:00 -4°C° 0 mm 6 mps 764 mmHg 67%
01:00 -4°C° 0 mm 6 mps 764 mmHg 69%
02:00 -4°C° 0 mm 6 mps 763 mmHg 70%
03:00 -4°C° 0 mm 6 mps 763 mmHg 72%
04:00 -4°C° 0 mm 6 mps 763 mmHg 74%
05:00 -4°C° 0 mm 5 mps 763 mmHg 76%
06:00 -4°C° 0 mm 5 mps 763 mmHg 77%
07:00 -2°C° 0 mm 4 mps 763 mmHg 74%
08:00 -1°C° 0 mm 4 mps 763 mmHg 71%
09:00 0°C° 0 mm 4 mps 764 mmHg 68%
10:00 0°C° 0 mm 4 mps 763 mmHg 66%
11:00 +1°C° 0 mm 4 mps 763 mmHg 63%
12:00 +3°C° 0 mm 4 mps 763 mmHg 61%
13:00 +3°C° 0 mm 4 mps 763 mmHg 64%
14:00 +3°C° 0 mm 4 mps 763 mmHg 66%
15:00 +3°C° 0 mm 4 mps 762 mmHg 68%
16:00 +1°C° 0 mm 4 mps 762 mmHg 72%
17:00 0°C° 0 mm 4 mps 762 mmHg 76%
18:00 -1°C° 0 mm 4 mps 762 mmHg 80%
19:00 -1°C° 0 mm 5 mps 762 mmHg 80%
20:00 -2°C° 0 mm 6 mps 762 mmHg 80%
21:00 -2°C° 0 mm 6 mps 762 mmHg 79%
22:00 -3°C° 0 mm 7 mps 762 mmHg 81%
23:00 -5°C° 0 mm 8 mps 762 mmHg 82%

10 March, Wednesday

Time Temperature Precipitation Wind Pressure Humidity
00:00 -5°C° 0 mm 8 mps 762 mmHg 84%
01:00 -6°C° 0 mm 8 mps 763 mmHg 82%
02:00 -7°C° 0 mm 8 mps 764 mmHg 80%
03:00 -8°C° 0 mm 7 mps 764 mmHg 79%
04:00 -8°C° 0 mm 7 mps 765 mmHg 73%
05:00 -8°C° 0 mm 6 mps 765 mmHg 68%
06:00 -8°C° 0 mm 6 mps 766 mmHg 62%
07:00 -6°C° 0 mm 6 mps 766 mmHg 58%
08:00 -5°C° 0 mm 6 mps 767 mmHg 53%
09:00 -4°C° 0 mm 6 mps 767 mmHg 49%
10:00 -4°C° 0 mm 7 mps 767 mmHg 46%
11:00 -4°C° 0 mm 8 mps 767 mmHg 43%
12:00 -2°C° 0 mm 8 mps 768 mmHg 40%
13:00 -2°C° 0 mm 8 mps 768 mmHg 42%
14:00 -4°C° 0 mm 8 mps 768 mmHg 45%
15:00 -4°C° 0 mm 8 mps 768 mmHg 47%
16:00 -4°C° 0 mm 6 mps 768 mmHg 50%
17:00 -5°C° 0 mm 5 mps 769 mmHg 52%
18:00 -5°C° 0 mm 3 mps 769 mmHg 55%
19:00 -5°C° 0 mm 3 mps 769 mmHg 56%
20:00 -6°C° 0 mm 3 mps 769 mmHg 56%
21:00 -5°C° 0 mm 2 mps 770 mmHg 56%
22:00 -5°C° 0 mm 2 mps 770 mmHg 56%
23:00 -3°C° 0 mm 1 mps 770 mmHg 55%

11 March, Thursday

Time Temperature Precipitation Wind Pressure Humidity
00:00 -3°C° 0 mm 1 mps 769 mmHg 54%
01:00 -3°C° 0 mm 1 mps 769 mmHg 54%
02:00 -5°C° 0 mm 2 mps 769 mmHg 54%
03:00 -5°C° 0 mm 2 mps 769 mmHg 54%
04:00 -5°C° 0 mm 2 mps 769 mmHg 54%
05:00 -5°C° 0 mm 2 mps 769 mmHg 55%
06:00 -6°C° 0 mm 3 mps 769 mmHg 55%
07:00 -6°C° 0 mm 3 mps 769 mmHg 53%
08:00 -5°C° 0 mm 3 mps 770 mmHg 50%
09:00 -4°C° 0 mm 3 mps 770 mmHg 48%
10:00 -4°C° 0 mm 3 mps 770 mmHg 46%
11:00 -2°C° 0 mm 2 mps 770 mmHg 45%
12:00 -1°C° 0 mm 2 mps 770 mmHg 43%
13:00 -1°C° 0 mm 2 mps 769 mmHg 42%
14:00 -1°C° 0 mm 2 mps 769 mmHg 40%
15:00 -1°C° 0 mm 2 mps 769 mmHg 39%
16:00 -1°C° 0 mm 2 mps 769 mmHg 42%
17:00 -2°C° 0 mm 2 mps 769 mmHg 46%
18:00 -4°C° 0 mm 3 mps 769 mmHg 49%
19:00 -4°C° 0 mm 3 mps 770 mmHg 49%
20:00 -4°C° 0 mm 3 mps 770 mmHg 49%
21:00 -5°C° 0 mm 3 mps 770 mmHg 49%
22:00 -5°C° 0 mm 3 mps 770 mmHg 51%
23:00 -5°C° 0 mm 3 mps 770 mmHg 52%
Show more